Lyndonville, VT

4:40 PM EST on November 21, 2019 (GMT -0500)
Lyndonville

Weather History for KCDA - October, 2019

Change the Weather History Date:

Tuesday, October 22, 2019

  Actual Average (WUND) Record (WUND)
Temperature  
Mean Temperature 46 °F -  
Max Temperature 57 °F - - (-1)
Min Temperature 36 °F - - (-1)
Degree Days  
Heating Degree Days 18    
Moisture  
Dew Point 39 °F    
Average Humidity 75    
Maximum Humidity 98    
Minimum Humidity 48    
Precipitation  
Precipitation 0.00 in - - ()
Sea Level Pressure  
Sea Level Pressure 30.06 in    
Wind  
Wind Speed 3 mph (ESE)    
Max Wind Speed 13 mph    
Max Gust Speed 22 mph    
Visibility 10 miles    
Events Rain    
Averages and records for this station are not official NWS values.
T = Trace of Precipitation, MM = Missing Value Source: NWS Daily Summary

Daily Weather History Graph

Daily Weather History Graph

Search for Another Location

Airport or City:

Astronomy

Oct. 22, 2019 Rise Set
Actual Time 7:12 AM EDT 5:52 PM EDT
Civil Twilight 6:42 AM EDT 6:22 PM EDT
Nautical Twilight 6:08 AM EDT 6:56 PM EDT
Astronomical Twilight 5:34 AM EDT 7:29 PM EDT
Moon No Moon Rise 3:18 PM EDT (10/22)
Length of Visible Light 11h 39m
Length of Day
10h 40m
Last Quarter, 37% of the Moon is Illuminated
Oct 22
Last Quarter
Oct 27
New
Nov 4
First Quarter
Nov 12
Full
Nov 19
Last Quarter

Hourly Weather History & Observations

Time (EDT) Temp. Windchill Dew Point Humidity Pressure Visibility Wind Dir Wind Speed Gust Speed Precip Events Conditions
12:18 AM 39.9 °F - 37.0 °F 89% 30.17 in 10.0 mi Calm Calm - N/A   Clear
12:36 AM 38.8 °F - 37.0 °F 93% 30.17 in 10.0 mi Calm Calm - N/A   Clear
12:58 AM 40.1 °F - 37.8 °F 91% 30.18 in 10.0 mi Calm Calm - N/A   Clear
1:16 AM 37.9 °F 35.5 °F 36.3 °F 94% 30.16 in 10.0 mi NE 3.5 mph - N/A   Clear
1:38 AM 38.5 °F - 37.0 °F 95% 30.16 in 10.0 mi Calm Calm - N/A   Clear
1:56 AM 39.2 °F - 37.0 °F 92% 30.16 in 10.0 mi Calm Calm - N/A   Clear
2:18 AM 37.0 °F - 36.1 °F 97% 30.18 in 7.0 mi Calm Calm - N/A   Clear
2:36 AM 37.9 °F - 36.9 °F 96% 30.16 in 10.0 mi Calm Calm - N/A   Clear
2:58 AM 38.7 °F - 37.6 °F 96% 30.16 in 10.0 mi Calm Calm - N/A   Clear
3:16 AM 38.3 °F - 37.2 °F 96% 30.16 in 10.0 mi Calm Calm - N/A   Clear
3:38 AM 36.3 °F - 35.4 °F 97% 30.15 in 7.0 mi Calm Calm - N/A   Clear
3:56 AM 37.8 °F - 36.9 °F 97% 30.14 in 10.0 mi Calm Calm - N/A   Clear
4:18 AM 37.9 °F - 36.9 °F 96% 30.14 in 10.0 mi Calm Calm - N/A   Clear
4:36 AM 37.6 °F - 36.7 °F 97% 30.14 in 7.0 mi Calm Calm - N/A   Clear
4:58 AM 36.3 °F - 35.6 °F 97% 30.14 in 7.0 mi Calm Calm - N/A   Clear
5:16 AM 36.5 °F - 35.8 °F 97% 30.14 in 7.0 mi Calm Calm - N/A   Clear
5:37 AM 37.6 °F - 36.9 °F 97% 30.13 in 7.0 mi Calm Calm - N/A   Clear
5:56 AM 37.4 °F - 36.7 °F 97% 30.12 in 10.0 mi Calm Calm - N/A   Clear
6:18 AM 36.9 °F - 36.3 °F 98% 30.11 in 10.0 mi Calm Calm - N/A   Clear
6:36 AM 37.4 °F - 36.7 °F 97% 30.12 in 10.0 mi Calm Calm - N/A   Clear
6:58 AM 38.8 °F 34.6 °F 37.6 °F 95% 30.12 in 10.0 mi SW 5.8 mph - N/A   Clear
7:16 AM 39.6 °F 36.3 °F 38.7 °F 97% 30.13 in 10.0 mi SW 4.6 mph - N/A   Clear
7:38 AM 36.5 °F 33.9 °F 35.6 °F 97% 30.14 in 10.0 mi South 3.5 mph - N/A   Clear
7:56 AM 36.1 °F 33.5 °F 35.4 °F 97% 30.11 in 7.0 mi NNE 3.5 mph - N/A   Clear
8:18 AM 40.3 °F 36.3 °F 39.4 °F 97% 30.12 in 10.0 mi South 5.8 mph - N/A   Clear
8:36 AM 39.7 °F - 38.5 °F 95% 30.13 in 10.0 mi Calm Calm - N/A   Unknown
8:58 AM 44.4 °F 42.9 °F 41.0 °F 88% 30.13 in 10.0 mi SSE 3.5 mph - N/A   Clear
9:16 AM 41.9 °F 40.0 °F 39.2 °F 90% 30.14 in 10.0 mi SE 3.5 mph - N/A   Clear
9:38 AM 43.0 °F 40.3 °F 40.8 °F 92% 30.12 in 10.0 mi East 4.6 mph - N/A   Clear
9:56 AM 46.8 °F - 41.5 °F 82% 30.11 in 10.0 mi Calm Calm - N/A   Clear
10:18 AM 48.2 °F - 42.4 °F 80% 30.09 in 10.0 mi SSE 3.5 mph - N/A   Clear
10:36 AM 48.4 °F - 41.7 °F 78% 30.08 in 10.0 mi SSE 5.8 mph - N/A   Clear
10:58 AM 50.5 °F - 41.5 °F 71% 30.09 in 10.0 mi South 5.8 mph - N/A   Clear
11:16 AM 51.1 °F - 42.3 °F 72% 30.08 in 10.0 mi Calm Calm - N/A   Clear
11:38 AM 52.9 °F - 42.6 °F 68% 30.08 in 10.0 mi SSE 5.8 mph - N/A   Clear
11:56 AM 54.7 °F - 42.6 °F 64% 30.09 in 10.0 mi SSE 6.9 mph - N/A   Clear
12:18 PM 56.3 °F - 41.9 °F 59% 30.09 in 10.0 mi SSE 8.1 mph - N/A   Clear
12:36 PM 57.0 °F - 40.6 °F 54% 30.08 in 10.0 mi SE 8.1 mph - N/A   Clear
12:58 PM 56.7 °F - 40.6 °F 55% 30.08 in 10.0 mi SSE 10.4 mph - N/A   Clear
1:16 PM 56.1 °F - 41.0 °F 57% 30.06 in 10.0 mi SSE 6.9 mph - N/A   Clear
1:38 PM 56.3 °F - 41.5 °F 58% 30.07 in 10.0 mi SSE 6.9 mph - N/A   Clear
1:56 PM 56.5 °F - 42.1 °F 59% 30.06 in 10.0 mi ESE 4.6 mph - N/A   Clear
2:18 PM 56.3 °F - 41.4 °F 57% 30.05 in 10.0 mi East 8.1 mph - N/A   Clear
2:36 PM 56.3 °F - 41.4 °F 57% 30.05 in 10.0 mi ESE 5.8 mph - N/A   Clear
2:58 PM 55.9 °F - 41.4 °F 58% 30.03 in 10.0 mi ESE 6.9 mph - N/A   Clear
3:16 PM 56.1 °F - 41.4 °F 58% 30.04 in 10.0 mi ESE 6.9 mph - N/A   Clear
3:38 PM 55.9 °F - 41.0 °F 57% 30.01 in 10.0 mi ESE 6.9 mph - N/A   Clear
3:56 PM 55.9 °F - 41.4 °F 58% 30.02 in 10.0 mi SSE 6.9 mph - N/A   Clear
4:18 PM 55.4 °F - 40.6 °F 58% 30.01 in 10.0 mi East 4.6 mph - N/A   Clear
4:36 PM 55.4 °F - 38.7 °F 53% 30.00 in 10.0 mi East 9.2 mph - N/A   Clear
4:59 PM 54.7 °F - 37.9 °F 53% 30.00 in 10.0 mi East 8.1 mph - N/A   Clear
5:16 PM 54.3 °F - 37.6 °F 53% 29.98 in 10.0 mi East 6.9 mph - N/A   Clear
5:39 PM 54.0 °F - 36.9 °F 52% 30.00 in 10.0 mi ESE 6.9 mph 16.1 mph N/A   Clear
5:56 PM 54.1 °F - 36.3 °F 51% 29.99 in 10.0 mi East 9.2 mph - N/A   Clear
6:19 PM 54.3 °F - 34.9 °F 48% 29.97 in 10.0 mi East 10.4 mph 16.1 mph N/A   Clear
6:36 PM 54.1 °F - 34.7 °F 48% 29.96 in 10.0 mi ESE 5.8 mph - N/A   Clear
6:59 PM 54.0 °F - 34.9 °F 49% 29.97 in 10.0 mi SE 5.8 mph - N/A   Clear
7:16 PM 53.8 °F - 35.1 °F 49% 29.98 in 10.0 mi ESE 5.8 mph - N/A   Clear
7:39 PM 54.1 °F - 34.5 °F 48% 29.98 in 10.0 mi ESE 5.8 mph - N/A   Mostly Cloudy
7:56 PM 53.8 °F - 35.1 °F 49% 29.98 in 10.0 mi East 5.8 mph - N/A   Mostly Cloudy
8:19 PM 54.0 °F - 37.0 °F 53% 29.97 in 10.0 mi East 12.7 mph 16.1 mph N/A   Scattered Clouds
8:36 PM 53.8 °F - 37.8 °F 55% 29.98 in 10.0 mi East 9.2 mph 18.4 mph N/A   Scattered Clouds
8:59 PM 53.2 °F - 39.6 °F 60% 29.96 in 10.0 mi East 6.9 mph - N/A   Mostly Cloudy
9:16 PM 52.9 °F - 40.6 °F 63% 29.96 in 10.0 mi SE 8.1 mph - N/A   Mostly Cloudy
9:39 PM 52.7 °F - 41.9 °F 67% 29.96 in 10.0 mi ESE 6.9 mph - N/A   Overcast
9:56 PM 52.0 °F - 42.4 °F 70% 29.96 in 10.0 mi SE 10.4 mph - N/A   Overcast
10:19 PM 52.0 °F - 43.7 °F 73% 29.93 in 10.0 mi East 9.2 mph - N/A   Overcast
10:36 PM 52.7 °F - 43.9 °F 72% 29.92 in 10.0 mi East 11.5 mph 21.9 mph N/A   Overcast
10:59 PM 53.1 °F - 44.1 °F 71% 29.92 in 10.0 mi East 10.4 mph 16.1 mph N/A   Overcast
11:16 PM 52.7 °F - 44.4 °F 73% 29.92 in 10.0 mi ESE 6.9 mph - N/A Rain Light Rain
11:39 PM 52.2 °F - 44.2 °F 74% 29.92 in 10.0 mi East 8.1 mph - N/A Rain Light Rain
11:56 PM 50.9 °F - 45.3 °F 81% 29.91 in 7.0 mi ESE 10.4 mph - N/A Rain Rain